Time,TemperatureF,DewpointF,PressureIn,WindDirection,WindDirectionDegrees,WindSpeedMPH,WindSpeedGustMPH,Humidity,HourlyPrecipIn,Conditions,Clouds,dailyrainin,SoftwareType,DateUTC
2013-01-08 21:06:00,30.2,32.0,29.06,WSW,238,0.0,0.0,20,0.00,,,-99.99,wx200d/1.3,2013-01-09 02:06:00,
2013-01-08 21:07:00,30.2,32.0,29.06,WSW,239,0.0,0.0,20,0.00,,,-99.99,wx200d/1.3,2013-01-09 02:07:00,
2013-01-08 21:12:00,30.2,32.0,29.06,WSW,238,0.0,0.0,20,0.00,,,-99.99,wx200d/1.3,2013-01-09 02:12:00,
2013-01-08 21:18:00,29.5,32.0,29.09,WSW,238,0.0,0.0,20,0.00,,,-99.99,wx200d/1.3,2013-01-09 02:18:00,
2013-01-08 21:24:00,29.3,32.0,29.09,WSW,239,0.0,0.0,20,0.00,,,-99.99,wx200d/1.3,2013-01-09 02:24:00,
2013-01-08 21:30:00,29.3,32.0,29.09,WSW,238,0.0,0.0,20,0.00,,,-99.99,wx200d/1.3,2013-01-09 02:30:00,
2013-01-08 21:32:00,29.5,32.0,29.09,WSW,238,0.0,0.0,20,0.00,,,-99.99,wx200d/1.3,2013-01-09 02:32:00,
2013-01-08 21:38:00,29.5,32.0,29.09,WSW,238,0.0,0.0,20,0.00,,,-99.99,wx200d/1.3,2013-01-09 02:38:00,
2013-01-08 21:44:00,29.3,32.0,29.09,WSW,238,0.0,0.0,20,0.00,,,-99.99,wx200d/1.3,2013-01-09 02:44:00,
2013-01-08 21:50:00,29.1,32.0,29.06,WSW,238,0.0,0.0,20,0.00,,,-99.99,wx200d/1.3,2013-01-09 02:50:00,
2013-01-08 21:56:00,29.3,32.0,29.06,WSW,238,0.0,0.0,20,0.00,,,-99.99,wx200d/1.3,2013-01-09 02:56:00,
2013-01-08 22:02:00,29.5,32.0,29.06,SW,228,0.0,0.0,20,0.00,,,-99.99,wx200d/1.3,2013-01-09 03:02:00,
2013-01-08 22:08:00,29.7,32.0,29.06,SW,231,0.0,0.0,20,0.00,,,-99.99,wx200d/1.3,2013-01-09 03:08:00,
2013-01-08 22:14:00,29.7,32.0,29.06,SW,227,0.0,0.0,20,0.00,,,-99.99,wx200d/1.3,2013-01-09 03:14:00,
2013-01-08 22:20:00,29.8,32.0,29.06,SW,218,0.0,0.0,20,0.00,,,-99.99,wx200d/1.3,2013-01-09 03:20:00,
2013-01-08 22:26:00,29.8,32.0,29.06,WSW,250,0.0,0.0,20,0.00,,,-99.99,wx200d/1.3,2013-01-09 03:26:00,
2013-01-08 22:32:00,29.7,32.0,29.06,WSW,241,0.0,0.0,20,0.00,,,-99.99,wx200d/1.3,2013-01-09 03:32:00,
2013-01-08 22:38:00,29.5,32.0,29.06,WSW,248,0.0,0.0,20,0.00,,,-99.99,wx200d/1.3,2013-01-09 03:38:00,
2013-01-08 22:44:00,29.5,32.0,29.06,SSW,208,0.0,3.1,20,0.00,,,-99.99,wx200d/1.3,2013-01-09 03:44:00,
2013-01-08 22:50:00,29.5,32.0,29.06,SW,217,0.0,0.0,20,0.00,,,-99.99,wx200d/1.3,2013-01-09 03:50:00,
2013-01-08 22:56:00,29.7,32.0,29.06,SSW,203,0.0,0.0,20,0.00,,,-99.99,wx200d/1.3,2013-01-09 03:56:00,
2013-01-08 23:02:00,29.8,32.0,29.09,SW,217,0.0,2.2,20,0.00,,,-99.99,wx200d/1.3,2013-01-09 04:02:00,
2013-01-08 23:08:00,29.8,32.0,29.09,SW,217,0.0,0.0,20,0.00,,,-99.99,wx200d/1.3,2013-01-09 04:08:00,
2013-01-08 23:14:00,29.8,32.0,29.09,SSW,206,0.0,0.0,20,0.00,,,-99.99,wx200d/1.3,2013-01-09 04:14:00,
2013-01-08 23:20:00,29.8,32.0,29.06,SSW,206,0.0,0.0,20,0.00,,,-99.99,wx200d/1.3,2013-01-09 04:20:00,
2013-01-08 23:26:00,30.0,32.0,29.06,WSW,248,0.0,0.0,20,0.00,,,-99.99,wx200d/1.3,2013-01-09 04:26:00,
2013-01-08 23:32:00,29.8,32.0,29.06,WSW,248,0.0,0.0,20,0.00,,,-99.99,wx200d/1.3,2013-01-09 04:32:00,
2013-01-08 23:38:00,29.7,32.0,29.06,WSW,247,0.0,0.0,20,0.00,,,-99.99,wx200d/1.3,2013-01-09 04:38:00,
2013-01-08 23:44:00,29.5,32.0,29.06,WSW,247,0.0,0.0,20,0.00,,,-99.99,wx200d/1.3,2013-01-09 04:44:00,
2013-01-08 23:50:00,29.5,32.0,29.09,SW,223,0.0,2.2,20,0.00,,,-99.99,wx200d/1.3,2013-01-09 04:50:00,
2013-01-08 23:56:00,29.5,32.0,29.09,SW,223,0.0,0.0,20,0.00,,,-99.99,wx200d/1.3,2013-01-09 04:56:00,